Wind_Speed
4 3 3 4 6 7 8 10 11 11 11 10 10 10 10 9 9 9 9 9 8 8 8 7 7 7 7 7 7 7 7 7 7 7 7 6 6 6 6 6 6 6 6
3 3 2 4 5 6 8 9 10 10 10 10 9 9 9 8 8 8 7 7 7 7 6 6 6 6 6 6 6 6 6 6 6 6 6 6 6 6 6 6 6 7 7
3 2 2 3 4 6 7 8 9 9 9 9 8 8 8 7 7 6 6 6 6 6 6 5 5 5 5 5 6 6 6 6 6 6 6 6 5 6 6 6 6 6 6
3 2 1 2 4 5 6 7 8 8 8 7 7 7 6 6 6 5 5 5 5 5 5 5 5 5 5 5 5 5 5 5 5 5 5 5 5 5 5 5 5 6 6
2 1 0 2 3 4 5 6 7 7 7 7 6 6 5 5 5 5 5 4 4 4 5 5 4 4 4 4 4 4 4 4 4 4 4 4 5 5 5 4 5 5 5
3 2 0 1 3 4 4 5 6 6 6 6 6 5 5 4 4 4 4 4 4 4 4 4 4 4 4 4 4 4 4 4 3 4 3 3 4 4 4 4 4 4 4
3 2 1 1 3 3 4 4 5 5 5 5 5 4 4 4 3 4 3 3 3 4 4 4 4 3 3 3 3 3 3 3 3 3 3 3 3 3 3 3 3 2 3
2 2 2 2 3 3 4 4 5 5 5 5 4 3 3 3 3 3 3 3 3 3 3 3 3 3 3 3 3 3 3 3 3 3 2 2 2 2 2 2 2 2 2
3 3 3 3 3 4 4 4 4 4 5 4 4 3 2 2 2 2 2 2 3 3 3 3 3 2 2 2 2 2 2 3 3 2 2 2 2 2 1 1 1 1 1
3 2 2 3 4 4 4 4 4 4 4 4 3 3 2 2 2 1 1 2 2 3 3 3 2 2 2 2 2 2 1 2 2 2 2 2 2 2 2 1 1 1 1
3 2 2 3 5 5 5 5 5 5 4 3 3 3 2 2 1 1 1 1 2 3 3 3 2 2 2 2 2 2 1 1 2 1 1 1 1 2 1 1 1 1 1
4 3 3 4 5 6 6 6 6 5 5 4 3 3 2 1 1 0 0 0 1 2 2 2 2 1 1 1 1 1 2 1 1 1 1 1 1 1 1 2 2 1 1
4 4 3 5 6 7 7 6 6 6 6 5 4 3 3 2 1 1 1 1 1 1 2 2 2 1 1 1 1 1 1 2 1 2 1 1 1 1 2 2 2 2 1
5 5 5 5 7 7 8 7 7 7 7 6 5 4 4 3 2 2 2 1 1 1 1 2 2 2 1 1 2 2 1 2 2 2 2 1 2 2 2 2 2 1 1
6 6 6 6 7 8 8 8 8 7 7 7 6 5 5 5 3 2 2 2 1 1 0 1 1 1 1 1 2 2 1 1 2 2 2 2 2 2 2 2 2 1 1
6 6 6 7 8 9 9 9 9 9 8 8 7 7 6 6 4 3 3 3 2 2 1 1 1 1 1 1 1 1 1 1 2 2 2 1 1 1 2 2 2 2 2
7 6 6 7 8 9 10 10 10 10 10 9 8 8 8 7 6 4 4 3 3 2 2 1 1 1 1 1 1 1 1 1 1 1 1 1 1 1 2 2 2 2 2
7 7 7 7 8 9 11 11 10 11 11 10 9 9 9 8 7 6 5 4 3 3 2 1 1 1 1 1 1 1 1 2 1 1 1 1 1 1 2 2 2 2 2
8 8 7 7 8 9 10 11 11 12 12 11 11 11 11 9 8 7 6 5 5 4 3 3 2 1 0 0 0 1 2 1 1 0 1 1 2 2 2 2 2 3 3
9 9 8 9 8 9 11 10 11 13 12 12 12 12 12 11 10 9 8 7 6 6 5 4 3 2 2 1 1 1 1 1 1 1 1 1 2 2 2 2 3 3 3
10 11 10 10 10 10 11 11 12 13 13 13 14 13 12 12 11 10 9 8 7 6 5 5 4 3 2 2 2 1 1 0 1 1 1 1 1 2 2 3 3 3 3
11 11 11 12 12 11 12 12 13 12 13 13 13 13 13 13 12 11 10 9 8 6 6 6 5 4 4 3 3 2 2 1 1 1 1 1 1 2 3 3 3 4 4
12 12 13 13 12 12 12 12 12 12 13 13 13 13 14 14 14 12 11 11 9 8 7 7 6 6 5 4 3 3 2 2 2 1 1 1 2 3 3 4 5 5 5
13 14 14 14 13 13 12 12 12 12 13 14 14 14 15 15 14 13 12 12 10 9 8 8 7 7 7 6 4 4 3 3 3 3 2 2 3 4 4 5 6 6 6
12 12 13 14 14 14 14 14 13 12 14 14 14 15 15 14 14 14 13 13 12 11 10 10 8 8 7 7 6 5 4 4 4 4 4 4 4 5 6 7 7 7 7
11 12 13 14 14 15 14 14 14 14 14 14 14 15 15 15 15 15 15 15 14 13 12 11 10 9 8 8 7 7 6 5 5 5 5 5 6 7 7 7 7 8 8
Wind_Direction
56 69 86 95 98 99 99 95 94 92 89 85 82 81 79 77 75 73 69 69 69 70 68 70 72 74 76 79 78 77 77 76 75 78 78 77 75 77 81 83 87 88 88
50 62 84 99 104 103 103 101 97 94 93 90 85 82 80 78 76 73 69 68 67 65 62 63 64 67 72 73 72 74 75 76 75 76 77 77 75 77 81 80 84 93 90
39 48 72 95 101 106 107 106 102 98 95 93 89 83 80 78 76 71 65 63 62 60 59 59 58 58 62 66 67 70 71 73 77 77 78 76 74 75 78 81 86 89 90
23 27 69 99 100 107 110 111 109 102 97 96 93 86 81 78 74 69 63 58 58 57 57 55 53 51 52 55 59 63 66 70 74 74 74 73 74 75 78 81 84 88 89
349 343 79 115 112 113 116 117 114 108 102 100 99 93 85 79 72 67 66 63 60 58 55 54 54 54 53 53 56 59 60 64 68 66 66 70 74 78 76 79 80 85 87
327 313 274 147 133 127 124 124 122 117 111 105 100 95 88 82 73 69 66 64 61 57 56 54 53 49 51 54 55 54 53 57 57 53 54 63 70 72 70 70 75 80 84
319 279 245 176 156 145 137 134 132 125 120 112 103 91 84 81 76 71 62 55 52 52 51 47 43 39 41 47 49 48 47 42 45 45 47 52 56 58 60 64 71 77 85
296 263 227 190 173 160 151 146 141 135 127 118 106 93 83 78 75 72 64 47 40 36 34 34 34 37 38 34 38 41 37 32 37 41 41 37 41 47 48 54 59 58 67
285 259 224 196 181 170 161 155 151 144 138 127 115 107 95 81 68 60 53 36 27 26 27 28 27 28 31 33 37 41 45 42 38 38 39 35 33 35 35 42 49 45 46
290 249 212 199 192 183 178 172 166 157 148 140 129 120 117 111 90 64 46 26 25 26 30 23 16 17 24 30 31 34 41 23 25 34 36 38 36 36 35 30 21 15 17
281 245 216 197 195 192 190 186 181 175 165 155 146 137 129 125 108 76 49 37 33 29 31 25 16 11 7 16 27 25 14 6 16 19 18 32 42 40 33 22 7 354 353
276 244 233 205 198 198 199 194 193 190 186 174 165 160 154 141 136 140 191 18 18 24 21 16 9 12 13 23 28 28 19 12 5 353 347 38 35 26 21 359 355 350 338
276 255 241 218 209 207 203 202 201 200 196 187 182 182 181 184 208 218 223 265 294 2 2 14 34 45 39 50 49 46 40 33 20 4 350 15 32 29 18 3 354 349 342
273 263 252 233 219 213 207 205 204 205 200 195 198 203 205 213 223 233 232 242 251 317 3 28 45 55 49 67 64 72 71 44 27 25 44 65 58 42 23 10 349 331 325
275 269 244 227 222 216 211 210 209 205 203 205 208 214 217 217 223 238 234 233 221 240 282 21 54 54 51 66 73 69 48 36 29 52 64 74 63 51 36 17 6 5 355
275 266 244 229 222 217 214 214 216 215 211 212 218 220 219 219 222 228 229 222 216 215 218 188 64 59 69 75 77 50 30 26 42 64 58 64 55 45 39 28 15 15 14
277 266 251 239 230 224 219 218 222 220 217 217 219 224 222 220 218 221 225 224 221 207 197 187 112 81 84 77 75 47 17 24 50 41 50 64 55 49 41 23 15 18 11
271 267 256 243 235 226 221 219 221 219 217 216 218 223 220 219 218 221 225 224 213 203 199 202 198 143 96 69 63 31 8 17 22 22 29 44 38 32 27 10 1 4 1
267 264 253 246 241 228 225 224 223 222 219 219 221 221 218 218 217 221 226 220 213 209 211 212 221 225 239 311 40 14 10 20 45 36 39 42 27 17 12 357 347 353 359
267 260 251 246 246 234 229 228 227 228 225 222 222 219 219 219 218 222 224 216 215 215 217 219 222 233 243 263 289 322 347 19 73 51 29 10 6 5 358 346 341 343 352
263 258 251 246 246 243 232 228 226 227 226 223 222 221 221 218 217 219 219 215 214 217 220 218 221 231 235 252 267 270 283 304 38 46 34 8 351 341 343 346 340 345 342
261 255 250 246 245 242 234 230 227 227 224 218 219 220 218 218 217 219 218 216 213 216 219 220 224 228 236 245 248 238 230 237 271 11 42 347 331 325 324 329 331 336 335
267 256 248 246 240 237 233 232 228 225 219 219 222 221 216 216 217 217 218 216 214 218 220 224 226 228 231 236 237 235 225 226 239 260 304 305 299 303 313 316 318 323 323
265 255 246 240 234 232 234 235 225 219 219 221 224 221 218 217 214 216 219 217 217 219 220 223 227 230 230 234 237 235 229 233 241 253 269 283 292 300 307 311 313 316 314
264 253 241 234 234 233 232 231 225 221 221 224 224 220 218 218 216 216 217 217 219 221 221 224 227 229 226 227 230 232 233 240 249 257 264 275 285 294 302 307 309 312 310
262 249 239 236 236 236 233 226 223 223 224 227 226 222 221 221 220 221 218 218 220 221 222 225 229 227 224 227 232 233 236 245 252 259 269 280 287 293 299 304 304 308 308
Height
5871 5871 5872 5872 5872 5872 5872 5873 5873 5874 5875 5876 5877 5878 5879 5879 5880 5881 5881 5881 5881 5882 5882 5882 5883 5883 5883 5883 5883 5883 5884 5884 5884 5884 5884 5884 5884 5884 5884 5884 5884 5884 5884
5871 5872 5872 5872 5873 5873 5873 5874 5874 5875 5876 5877 5878 5879 5880 5881 5881 5882 5882 5883 5883 5883 5884 5884 5884 5884 5884 5884 5884 5884 5885 5885 5885 5885 5885 5885 5885 5885 5885 5885 5884 5884 5885
5872 5872 5873 5873 5873 5874 5874 5875 5875 5876 5877 5878 5879 5880 5881 5882 5883 5883 5884 5884 5884 5884 5885 5885 5885 5885 5885 5885 5885 5885 5886 5886 5886 5886 5886 5886 5886 5886 5886 5885 5885 5885 5885
5872 5873 5873 5873 5874 5874 5875 5875 5876 5877 5878 5879 5880 5881 5882 5882 5883 5884 5884 5885 5885 5885 5886 5886 5886 5886 5886 5886 5886 5886 5886 5886 5887 5887 5887 5887 5886 5886 5886 5886 5886 5886 5886
5872 5873 5873 5873 5874 5874 5875 5876 5877 5877 5878 5879 5880 5881 5882 5883 5884 5884 5885 5886 5886 5886 5886 5886 5886 5886 5886 5887 5887 5887 5887 5887 5887 5887 5887 5887 5887 5887 5887 5887 5887 5887 5887
5872 5873 5873 5873 5874 5875 5875 5876 5877 5878 5879 5880 5881 5882 5883 5883 5884 5885 5885 5886 5886 5887 5887 5887 5887 5887 5887 5887 5887 5887 5887 5887 5888 5888 5888 5888 5888 5888 5887 5887 5887 5887 5887
5871 5872 5873 5873 5874 5875 5876 5876 5877 5878 5879 5880 5881 5882 5883 5884 5884 5885 5886 5886 5887 5887 5887 5887 5887 5887 5888 5888 5888 5888 5888 5888 5888 5888 5888 5888 5888 5888 5888 5888 5888 5888 5888
5871 5871 5872 5872 5873 5874 5875 5877 5877 5878 5879 5880 5881 5882 5883 5884 5884 5885 5886 5886 5887 5887 5887 5887 5887 5888 5888 5888 5888 5888 5888 5888 5888 5888 5888 5888 5888 5888 5888 5888 5888 5888 5888
5870 5871 5871 5872 5873 5874 5875 5876 5877 5878 5879 5880 5881 5882 5883 5884 5884 5885 5886 5886 5887 5887 5887 5887 5887 5888 5888 5888 5888 5888 5888 5888 5888 5888 5888 5888 5888 5888 5888 5888 5888 5888 5888
5869 5870 5870 5871 5872 5873 5875 5876 5877 5878 5879 5880 5881 5882 5883 5884 5884 5885 5886 5886 5887 5887 5888 5888 5887 5888 5888 5888 5888 5888 5888 5888 5888 5888 5888 5888 5888 5888 5888 5888 5888 5888 5888
5869 5869 5869 5870 5871 5872 5874 5875 5877 5878 5879 5880 5881 5882 5883 5884 5885 5885 5886 5886 5887 5887 5888 5888 5888 5888 5888 5888 5888 5888 5888 5888 5888 5888 5888 5888 5888 5888 5888 5888 5888 5888 5888
5868 5868 5868 5869 5870 5872 5873 5874 5876 5877 5878 5880 5881 5882 5883 5884 5885 5885 5886 5886 5887 5887 5888 5888 5888 5888 5888 5888 5888 5888 5888 5888 5888 5888 5888 5888 5888 5888 5888 5888 5888 5888 5887
5867 5867 5868 5868 5869 5871 5872 5873 5875 5876 5877 5879 5880 5882 5883 5884 5884 5885 5885 5886 5887 5887 5888 5888 5888 5888 5888 5888 5888 5888 5888 5888 5888 5888 5888 5888 5888 5888 5888 5888 5888 5887 5887
5866 5866 5866 5867 5868 5869 5871 5872 5874 5875 5876 5878 5879 5881 5882 5883 5884 5884 5885 5886 5886 5887 5887 5888 5888 5888 5888 5888 5888 5888 5888 5888 5888 5888 5888 5888 5888 5888 5888 5887 5887 5887 5887
5865 5865 5865 5866 5867 5868 5869 5871 5873 5874 5875 5877 5878 5880 5881 5882 5883 5884 5884 5885 5886 5887 5887 5887 5888 5888 5888 5888 5888 5888 5888 5888 5888 5888 5888 5888 5888 5888 5887 5887 5887 5887 5886
5863 5863 5863 5864 5865 5866 5868 5869 5871 5872 5874 5875 5877 5878 5880 5881 5882 5883 5884 5885 5886 5886 5887 5887 5888 5888 5888 5888 5888 5888 5888 5888 5888 5888 5888 5888 5888 5888 5888 5887 5887 5887 5886
5861 5862 5862 5863 5864 5865 5866 5868 5869 5870 5872 5874 5875 5877 5878 5880 5881 5882 5883 5884 5885 5886 5887 5887 5888 5888 5888 5888 5888 5888 5888 5888 5888 5888 5888 5888 5888 5888 5887 5887 5887 5886 5886
5859 5860 5861 5861 5862 5863 5864 5865 5867 5868 5870 5872 5874 5875 5877 5878 5880 5881 5882 5883 5884 5885 5886 5887 5888 5888 5888 5888 5888 5888 5888 5888 5888 5887 5888 5888 5888 5888 5887 5887 5887 5886 5886
5857 5858 5858 5859 5860 5860 5861 5863 5865 5866 5868 5870 5872 5873 5875 5877 5879 5880 5881 5882 5883 5885 5886 5887 5887 5888 5888 5888 5888 5888 5888 5888 5887 5887 5887 5887 5887 5887 5887 5887 5887 5886 5886
5855 5855 5856 5857 5858 5859 5859 5861 5863 5864 5866 5868 5870 5871 5873 5875 5877 5879 5880 5881 5883 5884 5885 5886 5886 5887 5887 5888 5888 5888 5888 5887 5887 5887 5887 5887 5887 5887 5887 5887 5886 5886 5885
5852 5853 5854 5855 5856 5856 5857 5859 5860 5862 5864 5866 5868 5869 5871 5874 5876 5877 5879 5880 5882 5883 5884 5885 5885 5886 5887 5887 5887 5887 5887 5887 5887 5887 5887 5887 5887 5887 5887 5887 5886 5885 5885
5850 5850 5851 5852 5853 5854 5855 5856 5857 5859 5861 5864 5866 5867 5869 5872 5874 5876 5878 5879 5880 5882 5883 5884 5884 5885 5886 5886 5887 5887 5887 5888 5887 5887 5887 5887 5887 5887 5886 5886 5886 5885 5884
5846 5847 5848 5849 5850 5851 5852 5853 5854 5856 5859 5861 5863 5865 5867 5869 5872 5874 5876 5877 5879 5880 5881 5882 5883 5884 5885 5885 5886 5886 5887 5887 5887 5887 5887 5887 5886 5886 5886 5885 5885 5884 5884
5843 5843 5844 5845 5846 5848 5849 5851 5852 5854 5857 5859 5861 5863 5865 5867 5869 5871 5873 5875 5877 5879 5880 5881 5882 5883 5884 5884 5885 5885 5886 5886 5886 5886 5887 5886 5886 5885 5885 5885 5884 5883 5883
5839 5839 5840 5842 5843 5845 5847 5848 5850 5852 5854 5856 5859 5860 5862 5865 5867 5869 5871 5873 5875 5877 5878 5879 5881 5882 5883 5883 5884 5884 5885 5885 5885 5885 5886 5886 5885 5885 5884 5883 5883 5882 5882
5836 5837 5838 5839 5841 5842 5844 5846 5848 5850 5852 5854 5856 5858 5860 5862 5864 5867 5869 5871 5873 5875 5876 5878 5879 5880 5881 5882 5883 5883 5884 5884 5884 5884 5884 5884 5884 5884 5883 5882 5882 5881 5880